Back to catalog

THORAD DELTA 1 DEB

AliveLEO
NORAD 9988·DEBRIS·🇺🇸 United States

Launched Nov 15, 1974 from Vandenberg Space Force Base

Loading…

Next Passes (next 24 hours)

TLE

FreshSource: Space-Track

Epoch: Sep 13, 2026, 05:29 UTC

1 09988U 74089EF  26256.22882443  .00001992  00000-0  12416-2 0  9993
2 09988 103.0392   1.0194 0210442  37.6711 323.8965 13.96494154516753

Track THORAD DELTA 1 DEB in real time with AllMySat

Download on the App Store